Portada
METAR-TAF:

METAR-TAF

Aeroports :

Greenville, Maine, Estats Units d'Amèrica

latitud: 45-28N, longitud: 069-35W, altitud: 427 m

Observació

L'informe es va fer fa 1 hora i 8 minuts, a les 16:56 UTC
Vent 5 kt amb direcció variable
Temperatura 2°C
Humitat 64%
Pressió 1007 hPa

METAR: KGNR 241656Z AUTO VRB05KT 02/M04 A2973 RMK AO1 SLP084 T00221044

Hora: 13:04 (18:04 UTC)


TAF: manca

Observacions i pronòstics meteorològics de més de 4000 aeroports (METAR i TAF).

Les estacions disponibles són els punts grocs i vermells al mapa.

Posi el ratolí al punt desitjat per veure el nom de l'estació.

Feu clic per veure les observacions i els pronòstics meteorològics.

Per canviar el mapa: feu clic els botons verds amb una creu de color negre per apropar; al botó verd amb un guió per allunyar la imatge; o en les fletxes verdes per a mapes adjacents.


METAR-TAF: